Regional Weather Roundup
Issued by NWS

Home | Current Version | Previous Version | Text Only | Print | Product List | Glossary On
Versions: 1 2 3 4 5 6 7 8 9 10 11 12 13 14 15 16 17 18 19 20 21 22 23 24 25 26 27 28 29 30 31 32 33 34 35 36 37 38 39 40 41 42 43 44 45 46 47 48 49 50
000
ASUS43 KOAX 241410
RWRNE

WEATHER ROUNDUP FOR NEBRASKA
NATIONAL WEATHER SERVICE OMAHA NE
800 AM CST TUE JAN 24 2017

NOTES: SATELLITE DATA IS BEING USED TO AUGMENT CLOUD COVER ABOVE
       12000 FEET.
       "FAIR" INDICATES FEW OR NO CLOUDS BELOW 12,000 FEET WITH NO
       SIGNIFICANT WEATHER AND/OR OBSTRUCTIONS TO VISIBILITY.

  * THESE STATIONS DO NOT REPORT WEATHER SUCH AS RAIN...SNOW OR FOG.

NEZ001>004-019>022-054>056-241500-
NEBRASKA PANHANDLE

CITY           SKY/WX    TMP DP  RH WIND       PRES   REMARKS
SCOTTSBLUFF    SNOW      22  19  89 N14       29.62S VSB 1/2 WCI   9
ALLIANCE       FOG       22  20  92 MISG      29.58S VSB 1/2
CHADRON        FOG       22  20  92 N15       29.70R VSB 3/4 WCI   9
KIMBALL        CLOUDY    23  22  98 N10       29.56R WCI  12
SIDNEY         CLOUDY    24  21  88 N20       29.55R WCI  10
$$

NEZ057>060-069>072-079>082-241500-
SOUTHWEST NEBRASKA

CITY           SKY/WX    TMP DP  RH WIND       PRES   REMARKS
NORTH PLATTE   CLOUDY    32  30  92 NE9       29.53S FOG     WCI  24
IMPERIAL       FOG       30  29  96 N12       29.52R VSB 1/2 WCI  20
LEXINGTON      CLOUDY    32  30  94 E17G25    29.51F FOG     WCI  21
MCCOOK         CLOUDY    32  32 100 E10       29.51R FOG     WCI  24
OGALLALA       CLOUDY    32  31  97 NE10      29.54R FOG     WCI  23
$$

NEZ005>010-023>029-035>040-094-241500-
NORTH CENTRAL NEBRASKA

CITY           SKY/WX    TMP DP  RH WIND       PRES   REMARKS
VALENTINE      LGT SNOW  29  27  92 NE13      29.63F FOG     WCI  19
AINSWORTH      FOG       29  29 100 NE8       29.63S VSB 1/2 WCI  21
BROKEN BOW     LGT SNOW  31  30  96 NE15      29.55F FOG     WCI  20
O`NEILL        FOG       30  30 100 E9        29.67R VSB 3/4 WCI  22
ORD            LGT SNOW  31  28  89 E6        29.61S VSB 1   WCI  25
THEDFORD       SNOW      30  30  99 E12G17    29.59F VSB 1/2 WCI  20
$$

NEZ041-046>049-061>064-073>077-083>087-241500-
SOUTH CENTRAL NEBRASKA

CITY           SKY/WX    TMP DP  RH WIND       PRES   REMARKS
GRAND ISLAND   CLOUDY    30  30 100 E20       29.60R FOG     WCI  17
AURORA         CLOUDY    30  30 100 E20G28    29.59S FOG     WCI  18
HASTINGS       CLOUDY    32  29  88 E18G24    29.56S WCI  20
HEBRON         CLOUDY    31  30  95 E15G21    29.57F FOG     WCI  21
HOLDREGE       CLOUDY    32  30  94 E20G25    29.50F FOG     WCI  20
KEARNEY *      CLOUDY    30  28  93 E17       29.55F WCI  18
YORK           FOG       30  30 100 E21G29    29.62F VSB 1   WCI  17
$$

NEZ011>018-030>034-042>045-241500-
NORTHEAST NEBRASKA

CITY           SKY/WX    TMP DP  RH WIND       PRES   REMARKS
NORFOLK        CLOUDY    29  27  92 E10       29.67F WCI  20
ALBION         CLOUDY    32  30  92 E12       29.65S FOG     WCI  23
BLAIR          CLOUDY    30  30  98 E10G17    29.72F FOG     WCI  21
FREMONT        CLOUDY    31  31 100 E10       29.72F FOG     WCI  22
TEKAMAH        CLOUDY    31  28  89 E10       29.76F WCI  22
WAYNE          CLOUDY    30  29  96 E16       29.72F WCI  19
$$

NEZ050>053-065>068-078-088>093-241500-
SOUTHEAST NEBRASKA

CITY           SKY/WX    TMP DP  RH WIND       PRES   REMARKS
LINCOLN        CLOUDY    30  29  96 E14G23    29.69F FOG     WCI  19
OMAHA EPPLEY   CLOUDY    31  26  82 E9        29.76F FOG     WCI  23
BEATRICE       CLOUDY    32  31  96 E15G25    29.62F FOG     WCI  21
FALLS CITY     CLOUDY    31  30  96 E15       29.71F FOG     WCI  20
NEBRASKA CITY  CLOUDY    31  31 100 E13       29.71F FOG     WCI  21
PLATTSMOUTH    CLOUDY    30  28  92 E12G18    29.72F FOG     WCI  21
$$

NEZ044-045-051>053-067-241500-
OMAHA AREA

CITY           SKY/WX    TMP DP  RH WIND       PRES   REMARKS
OMAHA EPPLEY   CLOUDY    31  26  82 E9        29.76F FOG     WCI  23
BLAIR          CLOUDY    30  30  98 E10G17    29.72F FOG     WCI  21
FREMONT        CLOUDY    31  31 100 E10       29.72F FOG     WCI  22
MILLARD        CLOUDY    32  31  94 E9        29.73F FOG     WCI  25
OFFUTT AFB     CLOUDY    31  31 100 E10       29.73F WCI  22
PLATTSMOUTH    CLOUDY    30  28  92 E12G18    29.72F FOG     WCI  21
WAHOO          CLOUDY    31  30  96 E13       29.70F FOG     WCI  21
$$



USA.gov is the U.S. government's official web portal to all federal, state and local government web resources and services.